Showing default

CALSPHERE 4(A), 1520

Orbit data source: Space-Track

CALSPHERE 4(A), 1520 is a payload satellite owned by NRL (US) in LEO that was launched on Fri, 13 Aug 1965 UTC via a THOR ABLESTAR launch vehicle from the Air Force Western Test Range (AFWTR). Payload-class satellites include a variety of spacecraft equipped with specific instruments for various scientific and technological missions. These include communications satellites like Starlink; space stations such as the ISS; scientific satellites like the Hubble; Earth observation satellites from companies like Planet Labs, Umbra, and HawkEye 360; GPS; miniature CubeSats for education and research; and military/defense satellites.

Loading next visibility...
Identifier
1520, 1965-065H
Orbit
LEO
Country
Flag of USUS
Related business
Manufacturer
NRL
Mission
Operational spacecraft
Bus & Motor
NRL 14", Unknown motor
Mass
4 kg wet, 4 kg dry
Launch date (UTC)
1965-08-13 (60 years ago)
Launch vehicle
THOR ABLESTAR
Launch site
Air Force Western Test Range (AFWTR)
Object type
Payload
Rocket body
Debris
Shape & HBR
Unknown
Radar Cross Section
Small (<0.1 m²)

Expand to show TLE details & history
Last TLE update: 15 hours ago

TLE from 15 hours ago
0 CALSPHERE 4(A)
1 01520U 65065H   25303.29160913  .00000147  00000-0  26355-3 0  9990
2 01520  89.9082 124.6240 0070624  33.6165 140.0154 13.36227228932003
Epoch: 2025-10-30T06:59Z
TLE epoch observation values (Epoch: 2025-10-30T06:59:55.028Z)
Latitude
5.77176°
Longitude
160.78299°
Altitude
1,166.492 km
Speed
7.251 km/s
True Right ascension
20h 18m 27s
True Declination
5° 44' 22"
Sunlit
Object was in daylight at epoch
Visualization orbit readout
Latitude
Unknown
Longitude
Unknown
Altitude
Unknown
Speed
Unknown
Apparent Right ascension
Unknown
Apparent Declination
Unknown
Sunlit
N/A
Visualization observer readout
Local Sidereal Time
18:00:33
Azimuth
Unknown
Elevation
Unknown
Doppler factor
Unknown
Orbital elements
Apogee altitude
1,173.394 km
Perigee altitude
1,067.478 km
Semi-major axis
7,498.573 km
Eccentricity
0.00706
Inclination
89.9082°
RAAN
124.624°
Arg. of periapsis
33.6165°
True anomaly
140.53193°
Mean anomaly
140.0154°
Eccentric anomaly
140.27402°
Mean motion
3.34253 °/min
Orbital period
107.7 mins
BSTAR
0.00026355
Loading maneuver chart data...
Computing Atmospheric mass density...
Loading historical data...
Loading historical data...
Loading historical data...
Loading historical data...
Loading historical data...
Loading historical data...
Loading historical data...

Documentation

Showing up to 5 results
|